When you browse on this site, cookies collect data to enhance your experience and personalize the content and advertising you see.
Visit our Privacy Policy to learn more. By continuing to use the site, you agree to this use of cookies and data.
  • en Suisse
  • Liste des pays
  • À 7 jours
  • Température de l'eau
  • Carte satellitaire
  • Carte météo
  • Widgets météo
  • user-avatar
    Se connecter

    Météo par heure à Pirmasens

    Ce jour, 26 Mai, Dimanche

    Heure Température Précipitation Vent Pression Humidité
    00:00 +10°C° 0 mm 1 m/s 729 mmHg 90%
    01:00 +9°C° 0 mm 1 m/s 729 mmHg 91%
    02:00 +9°C° 0 mm 1 m/s 729 mmHg 92%
    03:00 +9°C° 0 mm 1 m/s 729 mmHg 92%
    04:00 +7°C° 0 mm 0 m/s 729 mmHg 92%
    05:00 +9°C° 0 mm 1 m/s 729 mmHg 91%
    06:00 +11°C° 0 mm 1 m/s 729 mmHg 89%
    07:00 +12°C° 0 mm 1 m/s 729 mmHg 87%
    08:00 +14°C° 0 mm 1 m/s 729 mmHg 79%
    09:00 +16°C° 0 mm 2 m/s 729 mmHg 72%
    10:00 +18°C° 0 mm 2 m/s 729 mmHg 64%
    11:00 +18°C° 0 mm 3 m/s 729 mmHg 60%
    12:00 +19°C° 0 mm 3 m/s 729 mmHg 57%
    13:00 +20°C° 0 mm 3 m/s 729 mmHg 53%
    14:00 +20°C° 0 mm 3 m/s 728 mmHg 54%
    15:00 +20°C° 0 mm 3 m/s 728 mmHg 55%
    16:00 +20°C° 0 mm 3 m/s 728 mmHg 56%
    17:00 +19°C° 0 mm 3 m/s 727 mmHg 63%
    18:00 +18°C° 0 mm 3 m/s 727 mmHg 69%
    19:00 +17°C° 0 mm 2 m/s 726 mmHg 76%
    20:00 +16°C° 0 mm 2 m/s 726 mmHg 82%
    21:00 +14°C° 0 mm 2 m/s 726 mmHg 88%
    22:00 +12°C° 0 mm 2 m/s 726 mmHg 94%
    23:00 +12°C° 0 mm 2 m/s 726 mmHg 95%

    Demain, 27 Mai, Lundi

    Heure Température Précipitation Vent Pression Humidité
    00:00 +12°C° 0 mm 2 m/s 726 mmHg 95%
    01:00 +10°C° 0 mm 2 m/s 726 mmHg 96%
    02:00 +10°C° 0 mm 2 m/s 726 mmHg 97%
    03:00 +10°C° 0 mm 2 m/s 725 mmHg 97%
    04:00 +10°C° 0 mm 2 m/s 725 mmHg 97%
    05:00 +10°C° 0 mm 2 m/s 725 mmHg 95%
    06:00 +11°C° 0 mm 3 m/s 725 mmHg 93%
    07:00 +12°C° 0 mm 3 m/s 725 mmHg 91%
    08:00 +13°C° 0.1 mm 3 m/s 725 mmHg 90%
    09:00 +13°C° 0.1 mm 3 m/s 725 mmHg 89%
    10:00 +14°C° 0.1 mm 3 m/s 725 mmHg 88%
    11:00 +14°C° 0.1 mm 3 m/s 725 mmHg 89%
    12:00 +13°C° 0.1 mm 3 m/s 725 mmHg 90%
    13:00 +13°C° 0.1 mm 3 m/s 725 mmHg 90%
    14:00 +14°C° 0 mm 3 m/s 725 mmHg 85%
    15:00 +16°C° 0 mm 3 m/s 724 mmHg 80%
    16:00 +17°C° 0 mm 3 m/s 724 mmHg 75%
    17:00 +17°C° 0 mm 3 m/s 724 mmHg 77%
    18:00 +16°C° 0 mm 2 m/s 724 mmHg 79%
    19:00 +16°C° 0 mm 2 m/s 724 mmHg 82%
    20:00 +15°C° 0 mm 2 m/s 724 mmHg 86%
    21:00 +13°C° 0 mm 2 m/s 724 mmHg 91%
    22:00 +12°C° 0 mm 2 m/s 724 mmHg 95%
    23:00 +12°C° 0 mm 1 m/s 724 mmHg 95%

    Après-demain, 28 Mai, Mardi

    Heure Température Précipitation Vent Pression Humidité
    00:00 +11°C° 0 mm 1 m/s 724 mmHg 95%
    01:00 +11°C° 0 mm 1 m/s 724 mmHg 94%
    02:00 +11°C° 0 mm 1 m/s 724 mmHg 93%
    03:00 +10°C° 0 mm 1 m/s 724 mmHg 92%
    04:00 +10°C° 0 mm 1 m/s 724 mmHg 92%
    05:00 +9°C° 0 mm 2 m/s 724 mmHg 91%
    06:00 +10°C° 0 mm 2 m/s 724 mmHg 90%
    07:00 +10°C° 0 mm 3 m/s 724 mmHg 89%
    08:00 +12°C° 0 mm 3 m/s 724 mmHg 80%
    09:00 +13°C° 0 mm 4 m/s 724 mmHg 72%
    10:00 +14°C° 0 mm 4 m/s 724 mmHg 63%
    11:00 +14°C° 0.3 mm 4 m/s 724 mmHg 65%
    12:00 +14°C° 0.3 mm 5 m/s 723 mmHg 67%
    13:00 +15°C° 0.3 mm 5 m/s 723 mmHg 69%
    14:00 +15°C° 0.3 mm 5 m/s 723 mmHg 69%
    15:00 +14°C° 0.3 mm 5 m/s 723 mmHg 70%
    16:00 +14°C° 0.3 mm 5 m/s 723 mmHg 70%
    17:00 +14°C° 0.3 mm 4 m/s 723 mmHg 75%
    18:00 +13°C° 0.3 mm 3 m/s 723 mmHg 79%
    19:00 +12°C° 0.3 mm 3 m/s 723 mmHg 83%
    20:00 +11°C° 0.5 mm 3 m/s 724 mmHg 87%
    21:00 +10°C° 0.5 mm 2 m/s 724 mmHg 91%
    22:00 +8°C° 0.5 mm 2 m/s 725 mmHg 95%
    23:00 +8°C° 0.1 mm 2 m/s 725 mmHg 96%

    29 Mai, Mercredi

    Heure Température Précipitation Vent Pression Humidité
    00:00 +7°C° 0.1 mm 2 m/s 725 mmHg 96%
    01:00 +7°C° 0.1 mm 2 m/s 725 mmHg 97%
    02:00 +6°C° 0 mm 2 m/s 726 mmHg 97%
    03:00 +6°C° 0 mm 2 m/s 726 mmHg 97%
    04:00 +6°C° 0 mm 1 m/s 726 mmHg 98%
    05:00 +6°C° 0 mm 2 m/s 727 mmHg 97%
    06:00 +7°C° 0 mm 2 m/s 727 mmHg 96%
    07:00 +8°C° 0 mm 2 m/s 728 mmHg 95%
    08:00 +9°C° 0.2 mm 2 m/s 728 mmHg 91%
    09:00 +12°C° 0.2 mm 2 m/s 729 mmHg 87%
    10:00 +13°C° 0.2 mm 2 m/s 729 mmHg 83%
    11:00 +13°C° 0.6 mm 2 m/s 729 mmHg 82%
    12:00 +14°C° 0.6 mm 2 m/s 729 mmHg 81%
    13:00 +14°C° 0.6 mm 2 m/s 729 mmHg 80%
    14:00 +15°C° 0.5 mm 2 m/s 729 mmHg 77%
    15:00 +15°C° 0.5 mm 2 m/s 729 mmHg 74%
    16:00 +16°C° 0.5 mm 2 m/s 729 mmHg 72%
    17:00 +16°C° 0.2 mm 2 m/s 730 mmHg 75%
    18:00 +15°C° 0.2 mm 1 m/s 730 mmHg 79%
    19:00 +15°C° 0.2 mm 1 m/s 730 mmHg 82%
    20:00 +13°C° 0.1 mm 1 m/s 731 mmHg 85%
    21:00 +11°C° 0.1 mm 1 m/s 731 mmHg 88%
    22:00 +9°C° 0.1 mm 1 m/s 732 mmHg 91%
    23:00 +8°C° 0 mm 0 m/s 732 mmHg 92%

    30 Mai, Jeudi

    Heure Température Précipitation Vent Pression Humidité
    00:00 +7°C° 0 mm 0 m/s 732 mmHg 92%
    01:00 +7°C° 0 mm 0 m/s 732 mmHg 93%
    02:00 +6°C° 0 mm 0 m/s 733 mmHg 93%
    03:00 +6°C° 0 mm 0 m/s 733 mmHg 94%
    04:00 +6°C° 0 mm 0 m/s 733 mmHg 94%
    05:00 +8°C° 0 mm 1 m/s 733 mmHg 93%
    06:00 +9°C° 0 mm 1 m/s 734 mmHg 92%
    07:00 +11°C° 0 mm 1 m/s 734 mmHg 92%
    08:00 +12°C° 0.1 mm 2 m/s 734 mmHg 86%
    09:00 +14°C° 0.1 mm 2 m/s 735 mmHg 80%
    10:00 +16°C° 0.1 mm 3 m/s 735 mmHg 75%
    11:00 +17°C° 0.2 mm 3 m/s 735 mmHg 68%
    12:00 +18°C° 0.2 mm 4 m/s 735 mmHg 62%
    13:00 +19°C° 0.2 mm 4 m/s 735 mmHg 56%
    14:00 +19°C° 0 mm 4 m/s 735 mmHg 56%
    15:00 +19°C° 0 mm 4 m/s 735 mmHg 56%
    16:00 +19°C° 0 mm 4 m/s 735 mmHg 56%
    17:00 +18°C° 0 mm 4 m/s 735 mmHg 62%
    18:00 +17°C° 0 mm 3 m/s 735 mmHg 67%
    19:00 +16°C° 0 mm 3 m/s 735 mmHg 73%
    20:00 +14°C° 0 mm 3 m/s 735 mmHg 78%
    21:00 +13°C° 0 mm 3 m/s 735 mmHg 83%
    22:00 +13°C° 0 mm 2 m/s 736 mmHg 87%
    23:00 +12°C° 0.1 mm 3 m/s 736 mmHg 88%

    31 Mai, Vendredi

    Heure Température Précipitation Vent Pression Humidité
    00:00 +12°C° 0.1 mm 3 m/s 736 mmHg 89%
    01:00 +12°C° 0.1 mm 3 m/s 736 mmHg 90%
    02:00 +11°C° 0.3 mm 3 m/s 736 mmHg 91%
    03:00 +11°C° 0.3 mm 3 m/s 736 mmHg 93%
    04:00 +11°C° 0.3 mm 3 m/s 736 mmHg 95%
    05:00 +11°C° 0 mm 4 m/s 736 mmHg 95%
    06:00 +11°C° 0 mm 4 m/s 736 mmHg 95%
    07:00 +12°C° 0 mm 4 m/s 736 mmHg 95%
    08:00 +12°C° 0.3 mm 3 m/s 736 mmHg 95%
    09:00 +12°C° 0.3 mm 3 m/s 737 mmHg 96%
    10:00 +12°C° 0.3 mm 3 m/s 737 mmHg 96%
    11:00 +14°C° 0.3 mm 3 m/s 737 mmHg 93%
    12:00 +16°C° 0.3 mm 3 m/s 737 mmHg 90%
    13:00 +17°C° 0.3 mm 3 m/s 737 mmHg 87%
    14:00 +18°C° 0.1 mm 3 m/s 737 mmHg 83%
    15:00 +19°C° 0.1 mm 3 m/s 737 mmHg 78%
    16:00 +20°C° 0.1 mm 3 m/s 737 mmHg 73%
    17:00 +19°C° 0.1 mm 3 m/s 737 mmHg 77%
    18:00 +19°C° 0.1 mm 3 m/s 737 mmHg 81%
    19:00 +18°C° 0.1 mm 2 m/s 737 mmHg 85%
    20:00 +16°C° 0 mm 2 m/s 737 mmHg 89%
    21:00 +15°C° 0 mm 2 m/s 737 mmHg 93%
    22:00 +13°C° 0 mm 2 m/s 737 mmHg 97%
    23:00 +13°C° 0 mm 1 m/s 737 mmHg 97%
    Voir plus